DateTimeUTC,F1_A11,F1_S11,BsB_S11,BsG_S11,BsR_S11,BbsB_S11,BbsG_S11,BbsR_S11,BaB_A11,BaG_A11,BaR_A11,Tu_S11,T_S11,Uu_S11,U_S11,P_S11,T1_A11
2021-12-17T12:00:00Z,00000200,21000000,,,,,,,0000.15,0000.08,0000.16,19.3,26.3,,00.0,0646.3,31.1
2021-12-17T12:01:00Z,00000200,21000000,,,,,,,0000.32,-000.19,-000.13,19.3,26.3,,00.0,0646.3,31.1
2021-12-17T12:02:00Z,00000200,21000000,,,,,,,-000.47,-000.10,-000.12,19.2,26.3,,00.0,0646.3,31.0
2021-12-17T12:03:00Z,00000200,61000000,,,,,,,0000.10,-000.15,0000.04,19.2,26.3,,00.0,0646.3,31.0
2021-12-17T12:04:00Z,00000200,41000000,0000.65,-000.18,0000.37,0000.17,0000.28,-000.16,-000.33,-000.08,-000.32,19.2,26.0,,00.0,0647.2,31.0
2021-12-17T12:05:00Z,00000200,01000000,0000.34,0000.29,0000.13,0000.18,0000.00,0000.08,0000.05,-000.19,-000.05,19.1,26.0,,00.0,0647.3,31.0
2021-12-17T12:06:00Z,00000200,01000000,0000.24,0000.18,-000.07,-000.21,0000.06,-000.15,-000.01,-000.02,-000.07,19.2,25.9,,00.0,0647.4,31.0
2021-12-17T12:07:00Z,00000200,01000000,0000.36,0000.01,0000.34,-000.29,0000.06,-000.07,0000.22,-000.13,0000.01,19.2,25.9,,00.0,0647.4,31.0
2021-12-17T12:08:00Z,00000200,01000000,-000.06,0000.37,0000.10,0000.22,0000.02,0000.55,-000.26,0000.35,0000.49,19.2,25.9,,00.0,0647.4,31.0
2021-12-17T12:09:00Z,00000200,01000000,0001.02,0000.29,0000.01,0000.25,-000.27,-000.33,0000.35,0000.28,-000.02,19.3,25.9,,00.0,0647.5,31.0
2021-12-17T12:10:00Z,00000200,01000000,0000.39,0000.01,0000.28,0000.54,-000.15,0000.24,-000.13,-000.26,0000.10,19.3,25.9,,00.0,0647.4,31.1
2021-12-17T12:11:00Z,00000200,01000000,-000.14,0000.04,0000.09,-000.33,0000.18,0000.09,-000.02,0000.22,-000.40,19.4,26.0,,00.0,0647.5,31.1
2021-12-17T12:12:00Z,00000200,01000000,0000.62,-000.10,0000.14,0000.21,-000.25,0000.13,0000.22,0000.05,0000.41,19.4,26.0,,00.0,0647.5,31.1
2021-12-17T12:13:00Z,00000200,01000000,0000.18,0000.19,0000.31,0000.27,0000.04,0000.19,-000.05,-000.43,-000.32,19.4,26.0,,00.0,0647.5,31.1
2021-12-17T12:14:00Z,00000200,01000000,0000.51,0000.49,0000.25,0000.78,-000.05,-000.03,0000.09,0000.34,0000.57,19.4,26.0,,00.0,0647.5,31.1
2021-12-17T12:15:00Z,00000200,01000000,0000.10,0000.15,0000.33,0000.40,-000.12,-000.08,0000.02,0000.24,-000.42,19.4,26.0,,00.0,0647.5,31.1
2021-12-17T12:16:00Z,00000200,01000000,0000.64,-000.01,-000.00,-000.12,-000.07,0000.18,0000.10,0000.14,-000.22,19.3,26.0,,00.0,0647.4,31.0
2021-12-17T12:17:00Z,00000200,01000000,-000.02,0000.21,0000.42,0000.18,0000.15,0000.19,0000.10,-000.14,0000.30,19.2,25.9,,00.0,0647.4,31.0
2021-12-17T12:18:00Z,00000200,01000000,0000.68,0000.07,0000.10,-000.33,0000.08,0000.25,0000.05,0000.02,0000.47,19.2,25.9,,00.0,0647.5,31.0
2021-12-17T12:19:00Z,00000200,01000000,0000.17,0000.03,0000.20,-000.50,0000.15,0000.00,-000.02,0000.09,-000.47,19.1,25.9,,00.0,0647.5,31.0
2021-12-17T12:20:00Z,00000200,01000000,-000.46,0000.35,0000.01,0000.38,0000.05,-000.11,-000.27,-000.09,0000.11,19.1,25.8,,00.0,0647.5,31.0
2021-12-17T12:21:00Z,00000200,01000000,0000.20,0000.09,0000.25,-000.15,0000.14,0000.60,0000.42,-000.06,-000.03,19.0,25.8,,00.0,0647.5,31.0
2021-12-17T12:22:00Z,00000200,01000000,-000.04,0000.44,-000.14,0000.60,0000.03,-000.03,0000.11,0000.37,-000.04,19.1,25.8,,00.0,0647.5,31.0
2021-12-17T12:23:00Z,00000200,01000000,-000.41,-000.01,0000.29,0000.23,0000.14,0000.22,-000.19,-000.06,0000.09,19.1,25.8,,00.0,0647.5,31.0
2021-12-17T12:24:00Z,00000200,01000000,-000.05,-000.04,0000.03,0000.26,-000.48,0000.21,0000.09,-000.01,-000.13,19.1,25.8,,00.0,0647.6,31.1
2021-12-17T12:25:00Z,00000200,01000000,-000.02,-000.04,0000.10,-000.37,0000.18,0000.14,0000.02,0000.28,0000.52,19.2,25.8,,00.0,0647.6,31.0
2021-12-17T12:26:00Z,00000200,01000000,0000.68,-000.10,0000.12,0000.53,0000.13,0000.49,0000.13,-000.24,-000.11,19.2,25.9,,00.0,0647.6,31.0
2021-12-17T12:27:00Z,00000200,01000000,-000.85,0000.26,0000.21,-000.54,0000.05,-000.03,0000.01,0000.23,0000.02,19.3,25.9,,00.0,0647.6,31.1
2021-12-17T12:28:00Z,00000200,01000000,0000.36,0000.17,-000.28,0000.35,0000.29,-000.20,0000.41,0000.38,-000.02,19.4,25.9,,00.0,0647.6,31.1
2021-12-17T12:29:00Z,00000200,01000000,-000.09,0000.20,0000.25,-000.21,0000.24,0000.06,-000.15,-000.03,0000.13,19.4,25.9,,00.0,0647.6,31.1
2021-12-17T12:30:00Z,00000200,01000000,0000.55,0000.18,0000.02,-000.44,-000.05,-000.07,0000.29,-000.02,0000.34,19.5,25.9,,00.0,0647.6,31.1
2021-12-17T12:31:00Z,00000200,01000000,0000.18,0000.30,0000.60,-000.05,0000.07,0000.05,0000.11,0000.23,-000.09,19.5,26.0,,00.0,0647.6,31.1
2021-12-17T12:32:00Z,00000200,01000000,0000.70,0000.78,0000.75,0000.49,0000.13,0000.50,0002.55,0002.60,0002.57,19.4,26.0,,00.0,0647.6,31.1
2021-12-17T12:33:00Z,00000200,01000000,0000.84,0000.51,0000.19,0000.29,0000.09,0000.33,-000.11,-000.52,-000.09,19.4,25.9,,00.0,0647.6,31.1
2021-12-17T12:34:00Z,00000200,01000000,-000.13,0000.43,0000.13,-000.35,0000.04,-000.07,0000.15,0000.27,0000.08,19.3,25.9,,00.0,0647.6,31.0
2021-12-17T12:35:00Z,00000200,01000000,0000.21,-000.04,0000.24,-000.11,0000.16,0000.07,-000.16,0000.13,-000.05,19.2,25.8,,00.0,0647.6,31.0
2021-12-17T12:36:00Z,00000200,01000000,0000.11,0000.05,0000.07,-000.25,0000.15,0000.13,0000.29,0000.20,0000.03,19.2,25.8,,00.0,0647.6,31.0
2021-12-17T12:37:00Z,00000200,01000000,0000.12,0000.14,0000.30,-000.57,0000.05,0000.06,0000.00,0000.12,0000.07,19.2,25.8,,00.0,0647.6,31.0
2021-12-17T12:38:00Z,00000200,01000000,0000.98,0000.45,0000.04,0000.77,-000.11,0000.06,0000.10,0000.22,0000.32,19.2,25.9,,00.0,0647.6,31.1
2021-12-17T12:39:00Z,00000200,01000000,0000.32,0000.23,0000.36,0000.75,-000.02,0000.33,0000.17,-000.25,-000.26,19.3,25.9,,00.0,0647.7,31.1
2021-12-17T12:40:00Z,00000200,01000000,-000.21,0000.33,0000.15,0000.32,0000.10,-000.01,0000.07,0000.15,-000.04,19.3,25.9,,00.0,0647.7,31.1
2021-12-17T12:41:00Z,00000200,01000000,0000.18,0000.02,0000.11,0000.31,-000.05,-000.13,0000.06,0000.22,0000.36,19.4,26.0,,00.0,0647.7,31.1
2021-12-17T12:42:00Z,00000200,01000000,-000.22,0000.36,-000.06,0000.18,0000.09,-000.02,-000.25,-000.07,0000.16,19.4,26.0,,00.0,0647.7,31.1
2021-12-17T12:43:00Z,00000200,01000000,0000.53,0000.28,0000.21,0000.27,-000.32,0000.43,0000.30,0000.11,-000.33,19.5,26.0,,00.0,0647.7,31.1
2021-12-17T12:44:00Z,00000200,01000000,0000.45,0000.25,-000.04,0000.48,-000.04,-000.21,0000.28,0000.18,0000.34,19.5,26.0,,00.0,0647.7,31.1
2021-12-17T12:45:00Z,00000200,01000000,0000.90,0000.29,0000.48,0000.55,-000.02,0000.19,0000.10,0000.16,-000.18,19.6,26.0,,00.0,0647.7,31.1
2021-12-17T12:46:00Z,00000200,01000000,0000.97,0000.39,0000.41,0001.07,0000.14,0000.19,-000.01,0000.01,0000.44,19.5,26.1,,00.0,0647.8,31.1
2021-12-17T12:47:00Z,00000200,01000000,-000.14,0000.44,0000.09,-000.12,-000.13,-000.07,0000.17,0000.24,-000.39,19.5,26.0,,00.0,0647.7,31.1
2021-12-17T12:48:00Z,00000200,01000000,-000.04,0000.26,0000.07,0000.36,0000.07,-000.27,0000.12,0000.28,0000.55,19.4,26.0,,00.0,0647.7,31.1
2021-12-17T12:49:00Z,00000200,01000000,0000.10,-000.06,0000.37,0000.22,-000.03,0000.18,0000.16,0000.07,0000.24,19.4,26.0,,00.0,0647.7,31.1
2021-12-17T12:50:00Z,00000200,01000000,0001.06,0000.50,-000.17,0000.75,-000.10,-000.15,0000.20,-000.35,-000.14,19.3,26.0,,00.0,0647.8,31.0
2021-12-17T12:51:00Z,00000200,01000000,0000.86,0000.48,0000.17,-000.01,0000.09,-000.17,0000.22,0000.15,0000.19,19.3,25.9,,00.0,0647.8,31.1
2021-12-17T12:52:00Z,00000200,01000000,0000.03,0000.31,0000.41,0000.30,-000.12,0000.13,-000.29,0000.18,0000.00,19.3,25.9,,00.0,0647.8,31.1
2021-12-17T12:53:00Z,00000200,01000000,0000.01,0000.49,0000.25,-000.21,0000.12,0000.18,0000.18,0000.42,0000.03,19.4,26.0,,00.0,0647.9,31.1
2021-12-17T12:54:00Z,00000200,01000000,0000.07,-000.06,0000.09,0000.48,0000.07,0000.07,0000.10,-000.51,-000.06,19.4,26.0,,00.0,0647.9,31.1
2021-12-17T12:55:00Z,00000200,01000000,0000.82,0000.13,0000.07,0000.44,-000.06,0000.09,0000.05,0000.66,0000.24,19.5,26.0,,00.0,0647.9,31.1
2021-12-17T12:56:00Z,00000200,01000000,-000.12,0000.54,0000.41,0000.06,0000.16,-000.06,-000.02,-000.15,0000.18,19.5,26.1,,00.0,0647.9,31.1
2021-12-17T12:57:00Z,00000200,41000000,,,,,,,0000.49,0000.32,0000.04,19.6,26.1,,00.0,0647.9,31.1
2021-12-17T12:58:00Z,00000200,61000000,,,,,,,0000.15,0000.03,-000.05,19.3,26.2,,00.0,0647.0,31.1
2021-12-17T12:59:00Z,00000200,21000000,,,,,,,0000.16,0000.09,-000.12,19.3,26.3,,00.0,0647.0,31.1
